• In Uzbekistan
  • List of Countries
  • For 7 days
  • Water Temperature
  • Satellite Maps
  • Weather Map
  • Weather Widgets
  • user-avatar
    Login

    Hourly Weather Dikhil

    Today, 23 November, Thursday

    Time Temperature Precipitation Wind Pressure Humidity
    00:00 +25°C° 0 mm 4 mps 717 mmHg 71%
    01:00 +25°C° 0 mm 3 mps 716 mmHg 72%
    02:00 +25°C° 0 mm 3 mps 716 mmHg 74%
    03:00 +24°C° 0 mm 3 mps 716 mmHg 76%
    04:00 +24°C° 0 mm 3 mps 716 mmHg 77%
    05:00 +24°C° 0 mm 2 mps 716 mmHg 78%
    06:00 +23°C° 0 mm 2 mps 716 mmHg 80%
    07:00 +25°C° 0 mm 2 mps 717 mmHg 71%
    08:00 +26°C° 0 mm 3 mps 717 mmHg 63%
    09:00 +27°C° 0 mm 3 mps 718 mmHg 55%
    10:00 +29°C° 0 mm 3 mps 717 mmHg 48%
    11:00 +30°C° 0 mm 3 mps 717 mmHg 42%
    12:00 +33°C° 0 mm 3 mps 717 mmHg 36%
    13:00 +33°C° 0 mm 4 mps 717 mmHg 35%
    14:00 +34°C° 0 mm 4 mps 716 mmHg 34%
    15:00 +34°C° 0 mm 4 mps 716 mmHg 33%
    16:00 +33°C° 0 mm 5 mps 716 mmHg 38%
    17:00 +32°C° 0 mm 5 mps 716 mmHg 44%
    18:00 +30°C° 0 mm 5 mps 716 mmHg 49%
    19:00 +29°C° 0 mm 5 mps 716 mmHg 54%
    20:00 +28°C° 0 mm 5 mps 717 mmHg 59%
    21:00 +28°C° 0 mm 4 mps 717 mmHg 65%
    22:00 +27°C° 0 mm 4 mps 717 mmHg 67%
    23:00 +27°C° 0 mm 4 mps 717 mmHg 69%

    Tomorrow, 24 November, Friday

    Time Temperature Precipitation Wind Pressure Humidity
    00:00 +26°C° 0 mm 3 mps 717 mmHg 71%
    01:00 +26°C° 0 mm 3 mps 717 mmHg 73%
    02:00 +25°C° 0 mm 3 mps 717 mmHg 74%
    03:00 +25°C° 0 mm 3 mps 716 mmHg 76%
    04:00 +25°C° 0 mm 3 mps 717 mmHg 77%
    05:00 +24°C° 0 mm 3 mps 717 mmHg 78%
    06:00 +24°C° 0 mm 3 mps 717 mmHg 79%
    07:00 +25°C° 0 mm 3 mps 718 mmHg 72%
    08:00 +26°C° 0 mm 3 mps 718 mmHg 66%
    09:00 +27°C° 0 mm 3 mps 719 mmHg 59%
    10:00 +29°C° 0 mm 4 mps 718 mmHg 53%
    11:00 +30°C° 0 mm 4 mps 718 mmHg 47%
    12:00 +33°C° 0 mm 4 mps 718 mmHg 41%
    13:00 +33°C° 0 mm 4 mps 717 mmHg 40%
    14:00 +33°C° 0 mm 5 mps 717 mmHg 39%
    15:00 +34°C° 0 mm 5 mps 716 mmHg 38%
    16:00 +33°C° 0 mm 5 mps 716 mmHg 42%
    17:00 +32°C° 0 mm 6 mps 716 mmHg 45%
    18:00 +30°C° 0 mm 6 mps 716 mmHg 49%
    19:00 +29°C° 0 mm 6 mps 717 mmHg 53%
    20:00 +28°C° 0 mm 5 mps 718 mmHg 57%
    21:00 +27°C° 0 mm 5 mps 718 mmHg 62%
    22:00 +27°C° 0 mm 5 mps 718 mmHg 64%
    23:00 +26°C° 0 mm 5 mps 718 mmHg 66%

    Day after tomorrow, 25 November, Saturday

    Time Temperature Precipitation Wind Pressure Humidity
    00:00 +26°C° 0 mm 4 mps 719 mmHg 68%
    01:00 +25°C° 0 mm 4 mps 718 mmHg 70%
    02:00 +25°C° 0 mm 4 mps 718 mmHg 73%
    03:00 +23°C° 0 mm 4 mps 718 mmHg 75%
    04:00 +23°C° 0 mm 4 mps 718 mmHg 76%
    05:00 +23°C° 0 mm 4 mps 718 mmHg 77%
    06:00 +24°C° 0 mm 3 mps 719 mmHg 79%
    07:00 +25°C° 0 mm 4 mps 719 mmHg 72%
    08:00 +26°C° 0 mm 4 mps 720 mmHg 66%
    09:00 +27°C° 0 mm 5 mps 721 mmHg 60%
    10:00 +28°C° 0 mm 5 mps 720 mmHg 52%
    11:00 +30°C° 0 mm 5 mps 720 mmHg 45%
    12:00 +32°C° 0 mm 5 mps 720 mmHg 37%
    13:00 +33°C° 0 mm 6 mps 719 mmHg 37%
    14:00 +33°C° 0 mm 6 mps 719 mmHg 37%
    15:00 +33°C° 0 mm 7 mps 718 mmHg 37%
    16:00 +32°C° 0 mm 7 mps 718 mmHg 44%
    17:00 +30°C° 0 mm 7 mps 718 mmHg 51%
    18:00 +28°C° 0 mm 7 mps 718 mmHg 57%
    19:00 +28°C° 0 mm 6 mps 719 mmHg 60%
    20:00 +27°C° 0 mm 6 mps 720 mmHg 63%
    21:00 +26°C° 0 mm 6 mps 720 mmHg 66%
    22:00 +26°C° 0 mm 5 mps 720 mmHg 67%
    23:00 +25°C° 0 mm 5 mps 720 mmHg 69%

    26 November, Sunday

    Time Temperature Precipitation Wind Pressure Humidity
    00:00 +25°C° 0 mm 5 mps 720 mmHg 71%
    01:00 +25°C° 0 mm 4 mps 720 mmHg 72%
    02:00 +23°C° 0 mm 4 mps 719 mmHg 74%
    03:00 +24°C° 0 mm 3 mps 719 mmHg 75%
    04:00 +22°C° 0 mm 3 mps 719 mmHg 77%
    05:00 +22°C° 0 mm 3 mps 720 mmHg 78%
    06:00 +23°C° 0 mm 2 mps 720 mmHg 80%
    07:00 +24°C° 0 mm 3 mps 721 mmHg 72%
    08:00 +25°C° 0 mm 3 mps 721 mmHg 64%
    09:00 +26°C° 0 mm 4 mps 722 mmHg 55%
    10:00 +28°C° 0 mm 4 mps 721 mmHg 49%
    11:00 +30°C° 0 mm 5 mps 721 mmHg 43%
    12:00 +32°C° 0 mm 6 mps 721 mmHg 37%
    13:00 +33°C° 0 mm 6 mps 720 mmHg 38%
    14:00 +33°C° 0 mm 7 mps 719 mmHg 38%
    15:00 +33°C° 0 mm 7 mps 719 mmHg 39%
    16:00 +32°C° 0 mm 7 mps 719 mmHg 43%
    17:00 +30°C° 0 mm 7 mps 719 mmHg 47%
    18:00 +29°C° 0 mm 8 mps 719 mmHg 52%
    19:00 +28°C° 0 mm 7 mps 720 mmHg 56%
    20:00 +28°C° 0 mm 7 mps 720 mmHg 60%
    21:00 +27°C° 0 mm 6 mps 721 mmHg 64%
    22:00 +27°C° 0 mm 6 mps 721 mmHg 66%
    23:00 +26°C° 0 mm 5 mps 720 mmHg 68%

    27 November, Monday

    Time Temperature Precipitation Wind Pressure Humidity
    00:00 +26°C° 0 mm 5 mps 720 mmHg 70%
    01:00 +26°C° 0 mm 5 mps 720 mmHg 72%
    02:00 +25°C° 0 mm 5 mps 719 mmHg 74%
    03:00 +25°C° 0 mm 4 mps 719 mmHg 75%
    04:00 +25°C° 0 mm 4 mps 719 mmHg 76%
    05:00 +25°C° 0 mm 4 mps 719 mmHg 77%
    06:00 +23°C° 0 mm 4 mps 720 mmHg 78%
    07:00 +25°C° 0 mm 5 mps 720 mmHg 73%
    08:00 +26°C° 0 mm 5 mps 721 mmHg 68%
    09:00 +27°C° 0 mm 6 mps 721 mmHg 63%
    10:00 +28°C° 0 mm 6 mps 721 mmHg 57%
    11:00 +29°C° 0 mm 6 mps 721 mmHg 52%
    12:00 +30°C° 0 mm 7 mps 720 mmHg 47%
    13:00 +32°C° 0 mm 7 mps 719 mmHg 47%
    14:00 +32°C° 0 mm 7 mps 719 mmHg 47%
    15:00 +32°C° 0 mm 7 mps 718 mmHg 48%
    16:00 +30°C° 0 mm 7 mps 718 mmHg 52%
    17:00 +29°C° 0 mm 7 mps 718 mmHg 56%
    18:00 +28°C° 0 mm 7 mps 718 mmHg 60%
    19:00 +27°C° 0 mm 6 mps 719 mmHg 63%
    20:00 +27°C° 0 mm 6 mps 719 mmHg 66%
    21:00 +26°C° 0 mm 5 mps 720 mmHg 68%
    22:00 +26°C° 0 mm 5 mps 719 mmHg 70%
    23:00 +26°C° 0 mm 4 mps 719 mmHg 71%

    28 November, Tuesday

    Time Temperature Precipitation Wind Pressure Humidity
    00:00 +26°C° 0 mm 4 mps 719 mmHg 73%
    01:00 +25°C° 0 mm 4 mps 718 mmHg 74%
    02:00 +25°C° 0 mm 4 mps 718 mmHg 76%
    03:00 +25°C° 0 mm 3 mps 718 mmHg 77%
    04:00 +24°C° 0 mm 3 mps 718 mmHg 78%
    05:00 +24°C° 0 mm 3 mps 719 mmHg 79%
    06:00 +24°C° 0 mm 3 mps 719 mmHg 80%
    07:00 +25°C° 0 mm 3 mps 719 mmHg 74%
    08:00 +26°C° 0 mm 3 mps 720 mmHg 67%
    09:00 +27°C° 0 mm 4 mps 720 mmHg 60%
    10:00 +29°C° 0 mm 4 mps 720 mmHg 53%
    11:00 +30°C° 0 mm 4 mps 719 mmHg 46%
    12:00 +33°C° 0 mm 4 mps 719 mmHg 38%
    13:00 +33°C° 0 mm 4 mps 718 mmHg 35%
    14:00 +34°C° 0 mm 4 mps 718 mmHg 32%
    15:00 +34°C° 0 mm 4 mps 717 mmHg 29%
    16:00 +34°C° 0 mm 5 mps 717 mmHg 32%
    17:00 +33°C° 0 mm 5 mps 717 mmHg 35%
    18:00 +32°C° 0 mm 5 mps 717 mmHg 38%
    19:00 +30°C° 0 mm 5 mps 718 mmHg 44%
    20:00 +29°C° 0 mm 5 mps 718 mmHg 50%
    21:00 +28°C° 0 mm 5 mps 719 mmHg 56%
    22:00 +27°C° 0 mm 4 mps 719 mmHg 59%
    23:00 +27°C° 0 mm 4 mps 718 mmHg 61%
    Show more